| time (UTC) | temp C | wind direction | speed KPH | gust KPH | rain 1hr cm | rain 24hr cm | rain mn cm | humidity % | barometer mb |
| 20260510081725 | -17 | 0.0 | 0.0 | 0.00 | 0.25 | 0.00 | 1012.6 | ||
| 20260510081135 | -17 | 0.0 | 0.0 | 0.00 | 0.25 | 0.00 | 1012.7 | ||
| 20260510080521 | -17 | 0.0 | 0.0 | 0.00 | 0.25 | 0.00 | 1012.8 | ||
| 20260510075922 | -17 | 0.0 | 0.0 | 0.00 | 0.25 | 0.00 | 1012.8 | ||
| 20260510075322 | -17 | 0.0 | 0.0 | 0.00 | 0.25 | 0.00 | 1012.6 | ||
| 20260510074724 | -17 | 0.0 | 0.0 | 0.00 | 0.25 | 0.00 | 1012.8 | ||
| 20260510074153 | -17 | 0.0 | 0.0 | 0.00 | 0.25 | 0.00 | 1012.6 | ||
| 20260510073535 | -17 | 0.0 | 0.0 | 0.00 | 0.25 | 0.00 | 1012.4 | ||
| 20260510072921 | -17 | 0.0 | 0.0 | 0.00 | 0.25 | 0.00 | 1013.0 | ||
| 20260510072321 | -17 | 0.0 | 0.0 | 0.00 | 0.25 | 0.00 | 1013.0 | ||
| 20260510071726 | -17 | 0.0 | 0.0 | 0.00 | 0.25 | 0.00 | 1012.7 | ||
| 20260510071134 | -17 | 0.0 | 0.0 | 0.00 | 0.25 | 0.00 | 1012.3 | ||
| 20260510070526 | 8 | 0.0 | 0.0 | 0.00 | 0.25 | 0.00 | 1012.0 | ||
| 20260510065922 | 8 | 0 | 0.0 | 3.2 | 0.00 | 0.25 | 0.00 | 42 | 1012.1 |
| 20260510065323 | 8 | 0 | 0.0 | 3.2 | 0.00 | 0.25 | 0.00 | 42 | 1012.1 |
| 20260510064722 | 8 | 265 | 1.6 | 4.8 | 0.00 | 0.25 | 0.00 | 42 | 1012.0 |
| 20260510064120 | 8 | 294 | 1.6 | 4.8 | 0.00 | 0.25 | 0.00 | 42 | 1011.9 |
| 20260510063524 | 8 | 256 | 1.6 | 3.2 | 0.00 | 0.25 | 0.00 | 44 | 1012.0 |
| 20260510062928 | 8 | 223 | 1.6 | 3.2 | 0.00 | 0.25 | 0.00 | 46 | 1012.1 |
| 20260510062323 | 7 | 223 | 1.6 | 9.7 | 0.00 | 0.25 | 0.00 | 47 | 1012.2 |
| 20260510061728 | 8 | 211 | 3.2 | 9.7 | 0.00 | 0.25 | 0.00 | 48 | 1012.3 |
| 20260510061203 | 8 | 219 | 3.2 | 8.0 | 0.00 | 0.25 | 0.00 | 49 | 1012.1 |
| 20260510060522 | 8 | 218 | 4.8 | 6.4 | 0.00 | 0.25 | 0.00 | 48 | 1012.1 |
| 20260510055929 | 9 | 260 | 3.2 | 6.4 | 0.00 | 0.25 | 0.00 | 47 | 1011.9 |
| 20260510055322 | 9 | 26 | 1.6 | 3.2 | 0.00 | 0.25 | 0.00 | 47 | 1011.8 |
| 20260510054729 | 9 | 0 | 0.0 | 0.0 | 0.00 | 0.25 | 0.00 | 47 | 1011.7 |
| 20260510054156 | 9 | 0 | 0.0 | 0.0 | 0.00 | 0.25 | 0.00 | 49 | 1011.7 |
| 20260510053523 | 9 | 0 | 0.0 | 0.0 | 0.00 | 0.25 | 0.00 | 50 | 1011.7 |
| 20260510052922 | 10 | 0 | 0.0 | 0.0 | 0.00 | 0.25 | 0.00 | 48 | 1011.7 |
| 20260510052328 | 10 | 0 | 0.0 | 0.0 | 0.00 | 0.25 | 0.00 | 47 | 1011.8 |
| 20260510051722 | 10 | 0 | 0.0 | 0.0 | 0.00 | 0.25 | 0.00 | 47 | 1011.9 |
| 20260510051200 | 10 | 0 | 0.0 | 0.0 | 0.00 | 0.25 | 0.00 | 47 | 1012.0 |
| 20260510050523 | 10 | 0 | 0.0 | 0.0 | 0.00 | 0.25 | 0.00 | 47 | 1011.9 |
| 20260510045927 | 10 | 0 | 0.0 | 0.0 | 0.00 | 0.25 | 0.00 | 48 | 1011.9 |
| 20260510045321 | 9 | 0 | 0.0 | 0.0 | 0.00 | 0.25 | 0.00 | 49 | 1012.0 |
| 20260510044727 | 9 | 0 | 0.0 | 0.0 | 0.00 | 0.25 | 0.00 | 50 | 1011.9 |
| 20260510044155 | 9 | 0 | 0.0 | 0.0 | 0.00 | 0.25 | 0.00 | 50 | 1011.9 |
| 20260510043521 | 10 | 0 | 0.0 | 0.0 | 0.00 | 0.25 | 0.00 | 51 | 1011.9 |
| 20260510042927 | 10 | 0 | 0.0 | 0.0 | 0.00 | 0.25 | 0.00 | 49 | 1011.9 |
| 20260510042321 | 10 | 0 | 0.0 | 0.0 | 0.00 | 0.25 | 0.00 | 49 | 1012.0 |
| 20260510041734 | 10 | 0 | 0.0 | 0.0 | 0.00 | 0.25 | 0.00 | 49 | 1012.1 |
| 20260510041202 | 10 | 0 | 0.0 | 0.0 | 0.00 | 0.25 | 0.00 | 50 | 1012.0 |
| 20260510040521 | 10 | 0 | 0.0 | 0.0 | 0.00 | 0.25 | 0.00 | 51 | 1012.1 |
| 20260510035921 | 10 | 0 | 0.0 | 0.0 | 0.00 | 0.25 | 0.00 | 51 | 1012.2 |
| 20260510035325 | 10 | 0 | 0.0 | 0.0 | 0.00 | 0.25 | 0.00 | 51 | 1012.2 |
| 20260510034725 | 10 | 0 | 0.0 | 0.0 | 0.00 | 0.25 | 0.25 | 53 | 1012.1 |
| 20260510034138 | 10 | 0 | 0.0 | 0.0 | 0.00 | 0.25 | 0.25 | 55 | 1012.1 |
| 20260510033521 | 10 | 0 | 0.0 | 3.2 | 0.00 | 0.25 | 0.25 | 55 | 1012.2 |
| 20260510032924 | 10 | 28 | 1.6 | 3.2 | 0.00 | 0.25 | 0.25 | 56 | 1012.1 |
| 20260510032322 | 10 | 0 | 0.0 | 3.2 | 0.00 | 0.25 | 0.25 | 57 | 1012.2 |
| 20260510031732 | 10 | 0 | 0.0 | 0.0 | 0.00 | 0.25 | 0.25 | 58 | 1012.2 |
| 20260510031128 | 10 | 0 | 0.0 | 0.0 | 0.00 | 0.25 | 0.25 | 56 | 1012.1 |
| 20260510030522 | 10 | 0 | 0.0 | 0.0 | 0.00 | 0.25 | 0.25 | 57 | 1012.1 |
| 20260510025932 | 10 | 0 | 0.0 | 0.0 | 0.00 | 0.25 | 0.25 | 57 | 1012.0 |
| 20260510025322 | 10 | 0 | 0.0 | 1.6 | 0.00 | 0.25 | 0.25 | 58 | 1012.0 |
| 20260510024725 | 10 | 0 | 0.0 | 4.8 | 0.00 | 0.25 | 0.25 | 57 | 1011.8 |
| 20260510024133 | 10 | 0 | 0.0 | 4.8 | 0.00 | 0.25 | 0.25 | 57 | 1011.8 |
| 20260510023522 | 10 | 0 | 0.0 | 4.8 | 0.00 | 0.25 | 0.25 | 57 | 1011.6 |
| 20260510022922 | 10 | 0 | 0.0 | 6.4 | 0.00 | 0.25 | 0.25 | 58 | 1011.7 |
| 20260510022326 | 11 | 0 | 0.0 | 3.2 | 0.00 | 0.25 | 0.25 | 58 | 1011.7 |
| 20260510021728 | 11 | 0 | 0.0 | 3.2 | 0.00 | 0.25 | 0.25 | 58 | 1011.8 |
| 20260510021125 | 11 | 0 | 0.0 | 3.2 | 0.00 | 0.25 | 0.25 | 58 | 1011.8 |
| 20260510020528 | 11 | 0 | 0.0 | 3.2 | 0.00 | 0.25 | 0.25 | 58 | 1011.6 |
| 20260510015936 | 11 | 0 | 0.0 | 6.4 | 0.00 | 0.25 | 0.25 | 58 | 1011.5 |
| 20260510015325 | 11 | 30 | 1.6 | 6.4 | 0.00 | 0.25 | 0.25 | 56 | 1011.5 |
| 20260510014743 | 11 | 0 | 0.0 | 3.2 | 0.00 | 0.25 | 0.25 | 58 | 1011.5 |
| 20260510014214 | 11 | 0 | 0.0 | 0.0 | 0.00 | 0.25 | 0.25 | 61 | 1011.5 |
| 20260510013522 | 11 | 0 | 0.0 | 3.2 | 0.00 | 0.25 | 0.25 | 62 | 1011.4 |
| 20260510012940 | 11 | 0 | 0.0 | 3.2 | 0.00 | 0.25 | 0.25 | 63 | 1011.3 |
| 20260510012322 | 11 | 0 | 0.0 | 3.2 | 0.00 | 0.25 | 0.25 | 64 | 1011.3 |
| 20260510011729 | 12 | 0 | 0.0 | 4.8 | 0.00 | 0.25 | 0.25 | 67 | 1011.3 |
| 20260510011142 | 12 | 0 | 0.0 | 6.4 | 0.00 | 0.25 | 0.25 | 68 | 1011.2 |
| 20260510010523 | 12 | 0 | 0.0 | 6.4 | 0.00 | 0.25 | 0.25 | 69 | 1011.1 |
| 20260510005928 | 12 | 0 | 0.0 | 4.8 | 0.00 | 0.25 | 0.25 | 72 | 1011.1 |
| 20260510005322 | 12 | 0 | 0.0 | 3.2 | 0.00 | 0.25 | 0.25 | 75 | 1011.0 |
| 20260510004721 | 12 | 0 | 0.0 | 6.4 | 0.00 | 0.25 | 0.25 | 77 | 1011.1 |
| 20260510004139 | 12 | 0 | 0.0 | 6.4 | 0.00 | 0.25 | 0.25 | 78 | 1011.0 |
| 20260510003520 | 13 | 344 | 1.6 | 4.8 | 0.00 | 0.25 | 0.25 | 81 | 1010.8 |
| 20260510002921 | 13 | 334 | 1.6 | 9.7 | 0.00 | 0.25 | 0.25 | 81 | 1010.7 |
| 20260510002321 | 13 | 0 | 0.0 | 4.8 | 0.00 | 0.25 | 0.25 | 82 | 1010.8 |
| 20260510001728 | 13 | 0 | 0.0 | 3.2 | 0.00 | 0.25 | 0.25 | 82 | 1010.6 |
| 20260510001121 | 13 | 0 | 0.0 | 0.0 | 0.00 | 0.25 | 0.25 | 82 | 1010.6 |
| 20260510000521 | 14 | 0 | 0.0 | 3.2 | 0.00 | 0.25 | 0.25 | 82 | 1010.6 |
| 20260509235920 | 14 | 0 | 0.0 | 3.2 | 0.00 | 0.25 | 0.25 | 82 | 1010.7 |
| 20260509235321 | 15 | 0 | 0.0 | 6.4 | 0.00 | 0.25 | 0.25 | 81 | 1010.7 |
| 20260509234733 | 15 | 0 | 0.0 | 6.4 | 0.00 | 0.25 | 0.25 | 81 | 1010.5 |
| 20260509234120 | 15 | 0 | 0.0 | 8.0 | 0.00 | 0.25 | 0.25 | 81 | 1010.4 |
| 20260509233523 | 16 | 5 | 1.6 | 11.3 | 0.00 | 0.25 | 0.25 | 81 | 1010.4 |
| 20260509232925 | 16 | 20 | 4.8 | 11.3 | 0.00 | 0.25 | 0.25 | 81 | 1010.5 |
| 20260509232320 | 16 | 0 | 0.0 | 4.8 | 0.00 | 0.25 | 0.25 | 81 | 1010.6 |
| 20260509231725 | 16 | 0 | 0.0 | 3.2 | 0.00 | 0.25 | 0.25 | 80 | 1010.6 |
| 20260509231122 | 16 | 0 | 0.0 | 1.6 | 0.00 | 0.25 | 0.25 | 80 | 1010.5 |
| 20260509230520 | 16 | 0 | 0.0 | 1.6 | 0.00 | 0.25 | 0.25 | 79 | 1010.6 |
| 20260509225921 | 16 | 0 | 0.0 | 3.2 | 0.00 | 0.25 | 0.25 | 79 | 1010.5 |
| 20260509225327 | 16 | 0 | 0.0 | 4.8 | 0.00 | 0.25 | 0.25 | 78 | 1010.5 |
| 20260509224725 | 16 | 0 | 0.0 | 6.4 | 0.00 | 0.25 | 0.25 | 78 | 1010.5 |
| 20260509224124 | 16 | 34 | 1.6 | 6.4 | 0.00 | 0.25 | 0.25 | 78 | 1010.5 |
| 20260509223547 | 16 | 21 | 1.6 | 6.4 | 0.00 | 0.25 | 0.25 | 78 | 1010.5 |
| 20260509222923 | 16 | 15 | 1.6 | 6.4 | 0.00 | 0.25 | 0.25 | 79 | 1010.6 |
| 20260509222322 | 16 | 0 | 0.0 | 3.2 | 0.00 | 0.25 | 0.25 | 79 | 1010.6 |
| 20260509221725 | 16 | 0 | 0.0 | 1.6 | 0.00 | 0.25 | 0.25 | 79 | 1010.7 |
| 20260509221123 | 16 | 0 | 0.0 | 0.0 | 0.00 | 0.25 | 0.25 | 79 | 1010.7 |
| 20260509220520 | 16 | 0 | 0.0 | 0.0 | 0.00 | 0.25 | 0.25 | 79 | 1010.7 |
| 20260509215920 | 16 | 0 | 0.0 | 1.6 | 0.00 | 0.25 | 0.25 | 79 | 1010.7 |
| 20260509215325 | 15 | 0 | 0.0 | 1.6 | 0.00 | 0.25 | 0.25 | 82 | 1010.8 |
| 20260509214721 | 15 | 0 | 0.0 | 1.6 | 0.00 | 0.25 | 0.25 | 81 | 1010.9 |
| 20260509214138 | 15 | 0 | 0.0 | 3.2 | 0.00 | 0.25 | 0.25 | 81 | 1011.0 |
| 20260509213532 | 14 | 0 | 0.0 | 3.2 | 0.00 | 0.25 | 0.25 | 76 | 1011.1 |
| 20260509212920 | 13 | 0 | 0.0 | 3.2 | 0.00 | 0.25 | 0.25 | 62 | 1011.0 |
| 20260509212320 | 13 | 0 | 0.0 | 4.8 | 0.00 | 0.25 | 0.25 | 48 | 1010.9 |
| 20260509211744 | 13 | 0 | 0.0 | 6.4 | 0.00 | 0.25 | 0.25 | 43 | 1010.8 |
| 20260509211120 | 12 | 336 | 1.6 | 6.4 | 0.00 | 0.25 | 0.25 | 42 | 1010.8 |
| 20260509210520 | 12 | 309 | 1.6 | 6.4 | 0.00 | 0.25 | 0.25 | 41 | 1010.7 |
| 20260509205920 | 12 | 260 | 3.2 | 8.0 | 0.00 | 0.25 | 0.25 | 42 | 1010.8 |
| 20260509205320 | 12 | 264 | 3.2 | 8.0 | 0.00 | 0.25 | 0.25 | 42 | 1010.9 |
| 20260509204725 | 12 | 278 | 3.2 | 6.4 | 0.00 | 0.25 | 0.25 | 42 | 1011.0 |
| 20260509204120 | 12 | 270 | 1.6 | 6.4 | 0.00 | 0.25 | 0.25 | 43 | 1011.0 |
| 20260509203520 | 12 | 316 | 1.6 | 6.4 | 0.00 | 0.25 | 0.25 | 42 | 1011.0 |
| 20260509202923 | 12 | 278 | 1.6 | 6.4 | 0.00 | 0.25 | 0.25 | 43 | 1011.1 |
| 20260509202320 | 12 | 309 | 1.6 | 6.4 | 0.00 | 0.25 | 0.25 | 42 | 1011.1 |
| 20260509202207 | 12 | 0 | 0.0 | 6.4 | 0.00 | 0.25 | 0.25 | 42 | 1011.0 |
| 20260509201156 | 12 | 232 | 1.6 | 9.7 | 0.00 | 0.25 | 0.25 | 43 | 1011.1 |
| 20260509200522 | 12 | 266 | 3.2 | 6.4 | 0.00 | 0.25 | 0.25 | 44 | 1011.2 |
| 20260509195922 | 12 | 0 | 0.0 | 4.8 | 0.00 | 0.25 | 0.25 | 43 | 1011.2 |
| 20260509195322 | 12 | 96 | 1.6 | 8.0 | 0.00 | 0.25 | 0.25 | 43 | 1011.4 |
| 20260509194750 | 12 | 251 | 3.2 | 8.0 | 0.00 | 0.25 | 0.25 | 43 | 1011.2 |
| 20260509194122 | 12 | 0 | 0.0 | 4.8 | 0.00 | 0.25 | 0.25 | 42 | 1011.3 |
| 20260509193525 | 12 | 0 | 0.0 | 6.4 | 0.00 | 0.25 | 0.25 | 46 | 1011.4 |
| 20260509192922 | 13 | 0 | 0.0 | 6.4 | 0.00 | 0.25 | 0.25 | 41 | 1011.5 |
| 20260509192320 | 13 | 0 | 0.0 | 6.4 | 0.00 | 0.25 | 0.25 | 38 | 1011.5 |
| 20260509191727 | 13 | 0 | 0.0 | 8.0 | 0.00 | 0.25 | 0.25 | 39 | 1011.4 |
| 20260509191204 | 13 | 0 | 0.0 | 9.7 | 0.00 | 0.25 | 0.25 | 38 | 1011.6 |
| 20260509190544 | 12 | 337 | 1.6 | 9.7 | 0.00 | 0.25 | 0.25 | 40 | 1011.6 |
| 20260509185920 | 12 | 0 | 0.0 | 3.2 | 0.00 | 0.25 | 0.25 | 39 | 1011.8 |
| 20260509185324 | 12 | 0 | 0.0 | 4.8 | 0.00 | 0.25 | 0.25 | 41 | 1011.9 |
| 20260509184746 | 12 | 338 | 1.6 | 9.7 | 0.00 | 0.25 | 0.25 | 40 | 1012.0 |
| 20260509184132 | 12 | 1 | 1.6 | 8.0 | 0.00 | 0.25 | 0.25 | 39 | 1012.1 |
| 20260509183524 | 11 | 334 | 1.6 | 4.8 | 0.00 | 0.25 | 0.25 | 41 | 1012.3 |
| 20260509182921 | 11 | 0 | 0.0 | 3.2 | 0.00 | 0.25 | 0.25 | 40 | 1012.6 |
| 20260509182320 | 11 | 0 | 0.0 | 3.2 | 0.00 | 0.25 | 0.25 | 42 | 1012.5 |
| 20260509181723 | 11 | 0 | 0.0 | 1.6 | 0.00 | 0.25 | 0.25 | 41 | 1012.7 |
| 20260509181120 | 11 | 0 | 0.0 | 0.0 | 0.00 | 0.25 | 0.25 | 42 | 1012.6 |
| 20260509180520 | 11 | 0 | 0.0 | 4.8 | 0.00 | 0.25 | 0.25 | 45 | 1012.8 |
| 20260509175922 | 11 | 50 | 1.6 | 8.0 | 0.00 | 0.25 | 0.25 | 46 | 1012.8 |
| 20260509175345 | 11 | 74 | 1.6 | 8.0 | 0.00 | 0.25 | 0.25 | 46 | 1013.0 |
| 20260509174725 | 11 | 0 | 0.0 | 6.4 | 0.00 | 0.25 | 0.25 | 47 | 1012.8 |
| 20260509174120 | 11 | 40 | 1.6 | 6.4 | 0.00 | 0.25 | 0.25 | 46 | 1012.9 |
| 20260509173520 | 11 | 60 | 3.2 | 6.4 | 0.00 | 0.25 | 0.25 | 46 | 1012.8 |
| 20260509172920 | 11 | 40 | 1.6 | 4.8 | 0.00 | 0.25 | 0.25 | 45 | 1012.9 |
| 20260509172320 | 11 | 58 | 1.6 | 6.4 | 0.00 | 0.25 | 0.25 | 47 | 1012.9 |
| 20260509171727 | 11 | 0 | 0.0 | 9.7 | 0.00 | 0.25 | 0.25 | 46 | 1013.1 |
| 20260509171139 | 11 | 70 | 1.6 | 6.4 | 0.00 | 0.25 | 0.25 | 47 | 1013.0 |
| 20260509170520 | 11 | 0 | 0.0 | 8.0 | 0.00 | 0.25 | 0.25 | 48 | 1013.1 |
| 20260509165921 | 11 | 67 | 1.6 | 4.8 | 0.03 | 0.25 | 0.25 | 46 | 1013.1 |
| 20260509165320 | 11 | 0 | 0.0 | 11.3 | 0.03 | 0.25 | 0.25 | 48 | 1013.1 |
| 20260509164726 | 11 | 79 | 6.4 | 11.3 | 0.05 | 0.25 | 0.25 | 45 | 1013.2 |
| 20260509164120 | 11 | 72 | 3.2 | 9.7 | 0.05 | 0.25 | 0.25 | 45 | 1013.2 |
| 20260509163524 | 11 | 66 | 1.6 | 9.7 | 0.10 | 0.25 | 0.25 | 46 | 1013.2 |
| 20260509162924 | 10 | 82 | 3.2 | 9.7 | 0.13 | 0.25 | 0.25 | 45 | 1012.9 |
| 20260509162319 | 10 | 0 | 0.0 | 4.8 | 0.15 | 0.25 | 0.25 | 45 | 1012.3 |
| 20260509161728 | 10 | 291 | 1.6 | 4.8 | 0.20 | 0.25 | 0.25 | 45 | 1012.3 |
| 20260509161132 | 10 | 0 | 0.0 | 0.0 | 0.23 | 0.25 | 0.25 | 45 | 1012.2 |
| 20260509160519 | 10 | 0 | 0.0 | 0.0 | 0.23 | 0.25 | 0.25 | 45 | 1012.3 |
| 20260509155921 | 11 | 0 | 0.0 | 3.2 | 0.23 | 0.23 | 0.23 | 45 | 1012.7 |
| 20260509155320 | 10 | 0 | 0.0 | 8.0 | 0.23 | 0.23 | 0.23 | 47 | 1013.0 |
| 20260509154724 | 10 | 61 | 3.2 | 9.7 | 0.20 | 0.20 | 0.20 | 48 | 1013.4 |
| 20260509154202 | 10 | 58 | 3.2 | 11.3 | 0.20 | 0.20 | 0.20 | 49 | 1013.4 |
| 20260509153523 | 10 | 51 | 6.4 | 11.3 | 0.15 | 0.15 | 0.15 | 50 | 1013.5 |
| 20260509152923 | 10 | 55 | 1.6 | 6.4 | 0.13 | 0.13 | 0.13 | 51 | 1013.4 |
| 20260509152328 | 10 | 0 | 0.0 | 12.9 | 0.10 | 0.10 | 0.10 | 54 | 1013.4 |
| 20260509151723 | 10 | 81 | 6.4 | 14.5 | 0.05 | 0.05 | 0.05 | 59 | 1013.6 |
| 20260509151119 | 10 | 79 | 6.4 | 14.5 | 0.03 | 0.03 | 0.03 | 60 | 1013.8 |
| 20260509150530 | 11 | 78 | 6.4 | 12.9 | 0.03 | 0.03 | 0.03 | 62 | 1013.8 |
| 20260509145934 | 11 | 79 | 6.4 | 12.9 | 0.00 | 0.00 | 0.00 | 65 | 1013.8 |
| 20260509145319 | 11 | 75 | 3.2 | 11.3 | 0.00 | 0.00 | 0.00 | 72 | 1013.5 |
| 20260509144726 | 13 | 74 | 3.2 | 11.3 | 0.00 | 0.00 | 0.00 | 82 | 1013.4 |
| 20260509144122 | 13 | 86 | 6.4 | 14.5 | 0.00 | 0.00 | 0.00 | 79 | 1013.3 |
| 20260509143529 | 14 | 82 | 8.0 | 14.5 | 0.00 | 0.00 | 0.00 | 78 | 1013.3 |
| 20260509142922 | 14 | 81 | 9.7 | 12.9 | 0.00 | 0.00 | 0.00 | 78 | 1013.3 |
| 20260509142320 | 14 | 80 | 6.4 | 11.3 | 0.00 | 0.00 | 0.00 | 78 | 1013.2 |
| 20260509141727 | 14 | 76 | 4.8 | 12.9 | 0.00 | 0.00 | 0.00 | 79 | 1013.0 |
| 20260509141128 | 14 | 58 | 8.0 | 12.9 | 0.00 | 0.00 | 0.00 | 79 | 1012.9 |
| 20260509140522 | 14 | 75 | 6.4 | 14.5 | 0.00 | 0.00 | 0.00 | 80 | 1012.9 |
| 20260509135920 | 14 | 51 | 4.8 | 14.5 | 0.00 | 0.00 | 0.00 | 80 | 1012.8 |
| 20260509135320 | 14 | 78 | 6.4 | 14.5 | 0.00 | 0.00 | 0.00 | 80 | 1012.9 |
| 20260509134722 | 14 | 75 | 6.4 | 17.7 | 0.00 | 0.00 | 0.00 | 80 | 1012.8 |
| 20260509134119 | 14 | 69 | 8.0 | 17.7 | 0.00 | 0.00 | 0.00 | 79 | 1012.8 |
| 20260509133520 | 14 | 65 | 6.4 | 11.3 | 0.00 | 0.00 | 0.00 | 80 | 1012.5 |
| 20260509132920 | 14 | 56 | 4.8 | 12.9 | 0.00 | 0.00 | 0.00 | 79 | 1012.5 |
| 20260509132320 | 14 | 30 | 6.4 | 12.9 | 0.00 | 0.00 | 0.00 | 79 | 1012.6 |
| 20260509131722 | 14 | 38 | 6.4 | 12.9 | 0.00 | 0.00 | 0.00 | 79 | 1012.5 |
| 20260509131120 | 14 | 51 | 4.8 | 11.3 | 0.00 | 0.00 | 0.00 | 80 | 1012.5 |
| 20260509130524 | 14 | 68 | 4.8 | 12.9 | 0.00 | 0.00 | 0.00 | 80 | 1012.6 |
| 20260509125923 | 13 | 64 | 6.4 | 12.9 | 0.00 | 0.00 | 0.00 | 79 | 1012.6 |
| 20260509125321 | 13 | 55 | 4.8 | 9.7 | 0.00 | 0.00 | 0.00 | 80 | 1012.7 |
| 20260509124727 | 13 | 62 | 4.8 | 8.0 | 0.00 | 0.00 | 0.00 | 80 | 1012.8 |
| 20260509124119 | 13 | 36 | 1.6 | 9.7 | 0.00 | 0.00 | 0.00 | 80 | 1012.7 |
| 20260509123520 | 13 | 34 | 6.4 | 9.7 | 0.00 | 0.00 | 0.00 | 80 | 1012.6 |
| 20260509122924 | 13 | 0 | 0.0 | 8.0 | 0.00 | 0.00 | 0.00 | 80 | 1012.5 |
| 20260509122323 | 13 | 34 | 3.2 | 8.0 | 0.00 | 0.00 | 0.00 | 80 | 1012.3 |
| 20260509121726 | 13 | 26 | 3.2 | 8.0 | 0.00 | 0.00 | 0.00 | 80 | 1012.4 |
| 20260509121129 | 13 | 0 | 0.0 | 4.8 | 0.00 | 0.00 | 0.00 | 80 | 1012.6 |
| 20260509120520 | 13 | 25 | 1.6 | 4.8 | 0.00 | 0.00 | 0.00 | 80 | 1012.5 |
| 20260509115920 | 12 | 0 | 0.0 | 4.8 | 0.00 | 0.00 | 0.00 | 80 | 1012.5 |
| 20260509115320 | 12 | 36 | 3.2 | 4.8 | 0.00 | 0.00 | 0.00 | 79 | 1012.6 |
| 20260509114726 | 12 | 0 | 0.0 | 4.8 | 0.00 | 0.00 | 0.00 | 79 | 1012.5 |
| 20260509114120 | 12 | 0 | 0.0 | 4.8 | 0.00 | 0.00 | 0.00 | 79 | 1012.5 |
| 20260509113529 | 12 | 0 | 0.0 | 4.8 | 0.00 | 0.00 | 0.00 | 79 | 1012.3 |
| 20260509112919 | 12 | 0 | 0.0 | 4.8 | 0.00 | 0.00 | 0.00 | 79 | 1012.3 |
| 20260509112327 | 12 | 0 | 0.0 | 4.8 | 0.00 | 0.00 | 0.00 | 79 | 1012.3 |
| 20260509111728 | 12 | 0 | 0.0 | 6.4 | 0.00 | 0.00 | 0.00 | 79 | 1012.4 |
| 20260509111119 | 12 | 22 | 1.6 | 6.4 | 0.00 | 0.00 | 0.00 | 79 | 1012.5 |
| 20260509110523 | 12 | 0 | 0.0 | 4.8 | 0.00 | 0.00 | 0.00 | 80 | 1012.4 |
| 20260509105920 | 12 | 25 | 1.6 | 4.8 | 0.00 | 0.00 | 0.00 | 80 | 1012.3 |
| 20260509105346 | 12 | 0 | 0.0 | 3.2 | 0.00 | 0.00 | 0.00 | 81 | 1012.3 |
| 20260509104728 | 12 | 0.0 | 3.2 | 0.00 | 0.00 | 0.00 | 1012.2 | ||
| 20260509104121 | -17 | 0.0 | 0.0 | 0.00 | 0.00 | 0.00 | 1012.1 | ||
| 20260509103520 | -17 | 0.0 | 0.0 | 0.00 | 0.00 | 0.00 | 1012.1 | ||
| 20260509102919 | -17 | 0.0 | 0.0 | 0.00 | 0.00 | 0.00 | 1012.0 | ||
| 20260509102321 | -17 | 0.0 | 0.0 | 0.00 | 0.00 | 0.00 | 1012.1 | ||
| 20260509101728 | -17 | 0.0 | 0.0 | 0.00 | 0.00 | 0.00 | 1012.0 | ||
| 20260509101309 | -17 | 0.0 | 0.0 | 0.00 | 0.00 | 0.00 | 1012.1 | ||
| 20260509100912 | -17 | 0.0 | 0.0 | 0.00 | 0.00 | 0.00 | 1011.9 | ||
| 20260509095925 | -17 | 0.0 | 0.0 | 0.00 | 0.00 | 0.00 | 1012.0 | ||
| 20260509095328 | -17 | 0.0 | 0.0 | 0.00 | 0.00 | 0.00 | 1011.9 | ||
| 20260509094726 | -17 | 0.0 | 0.0 | 0.00 | 0.00 | 0.00 | 1012.1 | ||
| 20260509094120 | -17 | 0.0 | 0.0 | 0.00 | 0.00 | 0.00 | 1012.0 | ||
| 20260509093519 | -17 | 0.0 | 0.0 | 0.00 | 0.00 | 0.00 | 1012.2 | ||
| 20260509092919 | -17 | 0.0 | 0.0 | 0.00 | 0.00 | 0.00 | 1012.1 | ||
| 20260509092324 | -17 | 0.0 | 0.0 | 0.00 | 0.00 | 0.00 | 1012.1 | ||
| 20260509091719 | -17 | 0.0 | 0.0 | 0.00 | 0.00 | 0.00 | 1012.2 | ||
| 20260509091121 | -17 | 0.0 | 0.0 | 0.00 | 0.00 | 0.00 | 1012.2 | ||
| 20260509090520 | -17 | 0.0 | 0.0 | 0.00 | 0.00 | 0.00 | 1012.3 | ||
| 20260509085924 | -17 | 0.0 | 0.0 | 0.00 | 0.00 | 0.00 | 1012.2 | ||
| 20260509085329 | -17 | 0.0 | 0.0 | 0.00 | 0.00 | 0.00 | 1012.3 | ||
| 20260509084734 | -17 | 0.0 | 0.0 | 0.00 | 0.00 | 0.00 | 1012.3 | ||
| 20260509084120 | -17 | 0.0 | 0.0 | 0.00 | 0.00 | 0.00 | 1012.4 | ||
| 20260509083519 | -17 | 0.0 | 0.0 | 0.00 | 0.00 | 0.00 | 1012.5 | ||
| 20260509082923 | -17 | 0.0 | 0.0 | 0.00 | 0.00 | 0.00 | 1012.5 | ||
| 20260509082319 | -17 | 0.0 | 0.0 | 0.00 | 0.00 | 0.00 | 1012.5 |